カタログに戻る

FENGYUN 1C DEB

運用中SSO
NORAD 31332·DEBRIS·🇨🇳 China

打ち上げ May 10, 1999 から Taiyuan Satellite Launch Center

Loading…

次のパス (今後24時間)

TLE

最新Source: Space-Track

元期: Sep 14, 2026, 06:46 UTC

1 31332U 99025BQL 26257.28248847  .00000924  00000-0  51693-3 0  9994
2 31332  98.7040 264.7090 0048431 322.0475  50.6522 14.12606533998617

AllMySatでFENGYUN 1C DEBをリアルタイム追跡

Download on the App Store